EN

Hourly Weather Abraveses

Today, 29 November, Sunday

Time Temperature Precipitation Wind Pressure Humidity
00:00 +10°C° 0.2 mm 1 mps 713 mmHg 94%
01:00 +9°C° 0.2 mm 1 mps 714 mmHg 94%
02:00 +9°C° 0.2 mm 1 mps 714 mmHg 93%
03:00 +9°C° 0.1 mm 1 mps 714 mmHg 92%
04:00 +8°C° 0.1 mm 1 mps 714 mmHg 91%
05:00 +8°C° 0.1 mm 1 mps 715 mmHg 90%
06:00 +8°C° 0 mm 1 mps 715 mmHg 90%
07:00 +9°C° 0 mm 1 mps 716 mmHg 89%
08:00 +8°C° 0 mm 2 mps 717 mmHg 88%
09:00 +10°C° 0 mm 2 mps 717 mmHg 81%
10:00 +12°C° 0 mm 2 mps 717 mmHg 75%
11:00 +12°C° 0 mm 3 mps 718 mmHg 68%
12:00 +12°C° 0 mm 3 mps 718 mmHg 67%
13:00 +13°C° 0 mm 2 mps 718 mmHg 66%
14:00 +13°C° 0 mm 2 mps 718 mmHg 65%
15:00 +12°C° 0 mm 2 mps 718 mmHg 72%
16:00 +10°C° 0 mm 2 mps 718 mmHg 79%
17:00 +9°C° 0 mm 1 mps 718 mmHg 86%
18:00 +8°C° 0 mm 2 mps 719 mmHg 87%
19:00 +8°C° 0 mm 2 mps 719 mmHg 89%
20:00 +8°C° 0 mm 2 mps 720 mmHg 90%
21:00 +8°C° 0.1 mm 2 mps 720 mmHg 91%
22:00 +8°C° 0.1 mm 2 mps 720 mmHg 91%
23:00 +8°C° 0.1 mm 2 mps 721 mmHg 92%

Tomorrow, 30 November, Monday

Time Temperature Precipitation Wind Pressure Humidity
00:00 +8°C° 0.1 mm 2 mps 721 mmHg 91%
01:00 +8°C° 0.1 mm 2 mps 721 mmHg 90%
02:00 +9°C° 0.1 mm 2 mps 721 mmHg 89%
03:00 +9°C° 0 mm 2 mps 721 mmHg 88%
04:00 +9°C° 0 mm 3 mps 721 mmHg 86%
05:00 +9°C° 0 mm 3 mps 721 mmHg 85%
06:00 +9°C° 0.2 mm 3 mps 722 mmHg 85%
07:00 +9°C° 0.2 mm 3 mps 722 mmHg 85%
08:00 +10°C° 0.2 mm 3 mps 722 mmHg 85%
09:00 +11°C° 0 mm 3 mps 722 mmHg 80%
10:00 +12°C° 0 mm 3 mps 723 mmHg 75%
11:00 +15°C° 0 mm 2 mps 723 mmHg 70%
12:00 +14°C° 0 mm 3 mps 723 mmHg 69%
13:00 +14°C° 0 mm 3 mps 722 mmHg 68%
14:00 +14°C° 0 mm 3 mps 722 mmHg 67%
15:00 +13°C° 0 mm 3 mps 722 mmHg 72%
16:00 +11°C° 0 mm 3 mps 722 mmHg 77%
17:00 +10°C° 0 mm 2 mps 722 mmHg 82%
18:00 +9°C° 0 mm 2 mps 723 mmHg 81%
19:00 +9°C° 0 mm 2 mps 723 mmHg 79%
20:00 +9°C° 0 mm 2 mps 723 mmHg 78%
21:00 +9°C° 0 mm 2 mps 723 mmHg 78%
22:00 +9°C° 0 mm 2 mps 724 mmHg 78%
23:00 +8°C° 0 mm 2 mps 724 mmHg 78%

Day after tomorrow, 1 December, Tuesday

Time Temperature Precipitation Wind Pressure Humidity
00:00 +8°C° 0 mm 2 mps 724 mmHg 79%
01:00 +8°C° 0 mm 2 mps 724 mmHg 79%
02:00 +8°C° 0 mm 2 mps 723 mmHg 80%
03:00 +7°C° 0 mm 2 mps 724 mmHg 79%
04:00 +7°C° 0 mm 3 mps 724 mmHg 78%
05:00 +7°C° 0 mm 3 mps 724 mmHg 77%
06:00 +7°C° 0 mm 3 mps 724 mmHg 73%
07:00 +7°C° 0 mm 3 mps 724 mmHg 68%
08:00 +8°C° 0 mm 3 mps 724 mmHg 63%
09:00 +9°C° 0 mm 3 mps 724 mmHg 57%
10:00 +11°C° 0 mm 3 mps 724 mmHg 51%
11:00 +13°C° 0 mm 3 mps 724 mmHg 45%
12:00 +13°C° 0 mm 3 mps 724 mmHg 45%
13:00 +13°C° 0 mm 3 mps 723 mmHg 46%
14:00 +13°C° 0 mm 3 mps 723 mmHg 46%
15:00 +11°C° 0 mm 3 mps 723 mmHg 52%
16:00 +9°C° 0 mm 2 mps 723 mmHg 58%
17:00 +8°C° 0 mm 2 mps 722 mmHg 63%
18:00 +7°C° 0 mm 2 mps 722 mmHg 65%
19:00 +7°C° 0 mm 2 mps 723 mmHg 66%
20:00 +7°C° 0 mm 2 mps 723 mmHg 67%
21:00 +7°C° 0 mm 2 mps 722 mmHg 68%
22:00 +7°C° 0 mm 2 mps 722 mmHg 68%
23:00 +7°C° 0 mm 2 mps 722 mmHg 69%

2 December, Wednesday

Time Temperature Precipitation Wind Pressure Humidity
00:00 +7°C° 0 mm 2 mps 722 mmHg 69%
01:00 +7°C° 0 mm 2 mps 722 mmHg 69%
02:00 +7°C° 0 mm 2 mps 721 mmHg 70%
03:00 +7°C° 0 mm 2 mps 721 mmHg 70%
04:00 +7°C° 0 mm 2 mps 721 mmHg 70%
05:00 +7°C° 0 mm 2 mps 721 mmHg 70%
06:00 +7°C° 0 mm 2 mps 721 mmHg 70%
07:00 +8°C° 0 mm 2 mps 720 mmHg 70%
08:00 +8°C° 0 mm 2 mps 720 mmHg 69%
09:00 +10°C° 0 mm 2 mps 720 mmHg 65%
10:00 +12°C° 0 mm 2 mps 720 mmHg 60%
11:00 +14°C° 0 mm 2 mps 720 mmHg 56%
12:00 +14°C° 0 mm 2 mps 720 mmHg 56%
13:00 +14°C° 0 mm 2 mps 719 mmHg 57%
14:00 +14°C° 0 mm 2 mps 719 mmHg 58%
15:00 +12°C° 0 mm 2 mps 719 mmHg 63%
16:00 +10°C° 0 mm 2 mps 719 mmHg 69%
17:00 +8°C° 0 mm 2 mps 719 mmHg 74%
18:00 +8°C° 0 mm 2 mps 719 mmHg 75%
19:00 +7°C° 0 mm 2 mps 719 mmHg 77%
20:00 +6°C° 0 mm 2 mps 719 mmHg 78%
21:00 +6°C° 0 mm 2 mps 719 mmHg 78%
22:00 +5°C° 0 mm 3 mps 719 mmHg 77%
23:00 +4°C° 0 mm 3 mps 719 mmHg 76%

3 December, Thursday

Time Temperature Precipitation Wind Pressure Humidity
00:00 +4°C° 0 mm 3 mps 719 mmHg 76%
01:00 +4°C° 0 mm 3 mps 719 mmHg 76%
02:00 +4°C° 0 mm 2 mps 718 mmHg 75%
03:00 +4°C° 0 mm 2 mps 718 mmHg 75%
04:00 +4°C° 0 mm 2 mps 718 mmHg 75%
05:00 +3°C° 0 mm 2 mps 717 mmHg 75%
06:00 +4°C° 0 mm 2 mps 717 mmHg 72%
07:00 +6°C° 0 mm 1 mps 717 mmHg 69%
08:00 +6°C° 0 mm 1 mps 717 mmHg 66%
09:00 +8°C° 0 mm 1 mps 717 mmHg 61%
10:00 +10°C° 0 mm 1 mps 717 mmHg 56%
11:00 +12°C° 0 mm 1 mps 717 mmHg 51%
12:00 +12°C° 0 mm 2 mps 716 mmHg 56%
13:00 +12°C° 0 mm 2 mps 715 mmHg 60%
14:00 +10°C° 0 mm 3 mps 714 mmHg 65%
15:00 +9°C° 0 mm 3 mps 714 mmHg 73%
16:00 +8°C° 0 mm 2 mps 714 mmHg 81%
17:00 +6°C° 0 mm 2 mps 713 mmHg 90%
18:00 +7°C° 0.1 mm 3 mps 713 mmHg 90%
19:00 +6°C° 0.1 mm 4 mps 713 mmHg 90%
20:00 +7°C° 0.1 mm 5 mps 713 mmHg 90%
21:00 +7°C° 0.2 mm 5 mps 712 mmHg 89%
22:00 +7°C° 0.2 mm 6 mps 712 mmHg 89%
23:00 +7°C° 0.2 mm 6 mps 711 mmHg 89%

4 December, Friday

Time Temperature Precipitation Wind Pressure Humidity
00:00 +5°C° 0.3 mm 6 mps 711 mmHg 88%
01:00 +4°C° 0.3 mm 6 mps 711 mmHg 87%
02:00 +3°C° 0.3 mm 5 mps 711 mmHg 85%
03:00 +3°C° 0.3 mm 5 mps 711 mmHg 87%
04:00 +3°C° 0.3 mm 6 mps 711 mmHg 88%
05:00 +2°C° 0.3 mm 6 mps 711 mmHg 90%
06:00 +2°C° 0.3 mm 6 mps 711 mmHg 88%
07:00 +2°C° 0.3 mm 5 mps 711 mmHg 87%
08:00 +2°C° 0.3 mm 5 mps 711 mmHg 86%
09:00 +3°C° 0.4 mm 6 mps 712 mmHg 85%
10:00 +3°C° 0.4 mm 6 mps 712 mmHg 84%
11:00 +3°C° 0.4 mm 6 mps 712 mmHg 83%
12:00 +3°C° 0.5 mm 6 mps 712 mmHg 83%
13:00 +3°C° 0.5 mm 6 mps 712 mmHg 83%
14:00 +3°C° 0.5 mm 6 mps 712 mmHg 83%
15:00 +2°C° 0.4 mm 5 mps 712 mmHg 86%
16:00 +3°C° 0.4 mm 4 mps 712 mmHg 88%
17:00 +3°C° 0.4 mm 4 mps 713 mmHg 91%
18:00 +3°C° 0.4 mm 4 mps 713 mmHg 91%
19:00 +3°C° 0.4 mm 3 mps 713 mmHg 91%
20:00 +3°C° 0.4 mm 3 mps 714 mmHg 92%
21:00 +3°C° 0.4 mm 3 mps 714 mmHg 92%
22:00 +3°C° 0.4 mm 3 mps 714 mmHg 93%
23:00 +3°C° 0.4 mm 3 mps 714 mmHg 93%
Show more